Zurück zum Katalog

BREEZE-M DEB

AktivHEO
NORAD 32029·DEBRIS·🇷🇺 Russia

Gestartet Feb 28, 2006 von Baikonur Cosmodrome

Loading…

Nächste Überflüge (nächste 24 Stunden)

TLE

AktuellSource: Space-Track

Epoche: Sep 13, 2026, 20:25 UTC

1 32029U 06006G   26256.85093536  .00001241  00000-0  96578-3 0  9994
2 32029  51.5708  60.0607 5133240 126.2314 292.9563  5.26630693372996

Verfolge BREEZE-M DEB in Echtzeit mit AllMySat

Download on the App Store